Theta_e
321 321 319 319 318 316 315 315 314 315 315 314 314 311 310 308 305 301 296 295 294 293 292 291 289 289 290 290 290 290 289 290 291 292 292 293 294 298 309 314 317 320 323 327 331 333 327 326 325 326 325 323 324 323 324 324 323 322 322 321 321 320 319 318 318 319 319 319 319 320 321 320 320 319 320 320 320 320 321 321 322 323 323 324 323
318 316 318 318 318 317 317 316 315 314 314 315 312 312 310 306 304 302 298 296 296 293 293 291 290 290 289 291 290 290 289 289 289 292 292 293 293 296 304 309 313 317 320 323 326 330 332 327 326 325 325 325 324 325 324 323 322 322 322 321 321 321 319 318 318 318 318 318 319 319 320 320 319 319 319 319 319 319 320 320 320 320 320 322 321
319 317 317 317 316 316 316 315 315 314 314 315 311 312 309 309 307 304 299 296 295 291 292 292 290 290 290 290 290 289 289 289 289 290 291 292 292 292 295 304 309 313 316 320 323 327 330 331 331 326 326 325 324 324 324 323 322 322 322 321 321 321 320 319 317 318 318 318 318 319 319 319 318 318 318 319 319 319 319 319 319 319 319 319 318
317 317 316 316 316 316 315 315 315 312 311 311 309 307 308 304 302 299 296 296 296 293 291 292 291 290 288 289 288 289 289 289 289 289 290 291 291 291 292 296 302 309 312 316 321 324 326 328 330 326 326 326 325 325 325 323 322 321 322 322 322 321 320 318 317 317 317 318 318 318 318 318 318 318 318 318 318 318 318 318 318 318 318 318 318
316 316 315 316 316 314 313 314 312 309 307 307 307 305 305 302 299 296 295 295 296 295 293 291 290 291 289 289 288 289 288 288 290 289 290 291 291 291 291 292 294 302 306 310 314 319 323 326 327 329 329 326 326 325 324 324 323 322 322 321 321 322 320 319 317 316 317 317 318 318 317 317 317 317 317 317 317 317 318 318 318 318 318 317 317
314 313 314 314 312 313 311 312 310 307 306 305 305 304 303 300 298 297 299 297 297 295 294 297 294 289 289 288 288 288 287 289 288 289 288 290 290 289 291 292 292 294 296 304 309 313 319 323 325 326 327 328 329 328 326 324 325 324 322 322 321 321 321 320 319 317 317 317 317 318 317 317 317 317 316 317 316 316 317 317 317 317 317 317 317
313 313 311 311 310 310 309 310 308 307 307 305 306 302 302 303 300 300 296 294 293 292 293 293 292 293 291 289 290 289 287 288 287 288 288 289 290 289 290 291 293 294 295 295 301 306 312 318 322 324 325 326 327 327 328 326 325 324 322 322 322 322 321 321 319 318 318 318 318 317 317 317 317 316 316 316 316 316 316 316 316 316 317 317 316
313 314 313 312 312 311 310 308 307 307 306 304 305 304 302 302 300 302 301 299 295 297 291 291 290 291 289 289 289 289 288 287 288 288 289 287 289 289 290 291 293 292 298 296 296 299 308 313 317 322 324 324 324 325 327 327 327 325 324 323 322 322 321 320 320 319 318 317 317 317 317 316 316 316 316 316 316 316 316 316 316 316 316 316 316
313 312 313 312 312 311 309 308 307 307 306 304 305 304 303 303 300 299 301 300 296 295 294 289 290 290 288 287 287 288 288 288 288 288 289 288 287 287 289 291 291 299 294 294 296 296 301 308 313 317 317 316 319 322 324 326 327 327 326 325 323 323 321 320 320 319 318 317 317 317 317 316 316 315 316 316 315 315 315 315 315 315 315 316 315
310 311 311 310 310 309 307 307 306 306 305 304 304 302 303 303 303 297 296 298 297 296 296 293 289 289 289 288 287 287 287 287 288 291 288 288 287 287 289 289 290 292 293 294 293 295 295 300 307 310 309 311 316 320 322 324 325 326 327 326 324 322 321 321 320 319 319 318 317 317 317 316 315 316 315 315 315 315 315 315 315 315 315 315 315
308 309 309 309 308 307 306 305 305 305 305 303 302 301 300 300 300 301 294 294 295 294 293 291 290 288 288 288 287 287 287 286 289 288 287 288 288 290 287 289 289 291 293 292 292 292 294 296 296 297 298 306 312 316 319 322 324 325 325 325 326 323 322 321 321 319 318 318 317 317 317 316 315 315 315 314 314 314 314 314 315 315 314 314 314
305 306 306 306 306 305 305 304 304 305 304 303 302 301 300 299 299 298 299 295 293 291 289 290 288 286 288 289 287 287 287 287 287 287 288 287 288 287 288 288 288 290 290 291 293 293 293 294 294 295 297 300 307 311 314 318 318 320 323 326 325 324 323 322 321 320 319 318 318 318 317 316 315 315 315 314 314 314 314 315 314 315 314 314 314
300 301 301 301 301 301 301 302 302 302 300 299 298 298 297 298 296 296 297 296 295 289 290 290 289 291 287 285 286 286 288 288 288 288 287 287 286 286 287 288 288 288 289 290 291 292 292 293 294 295 296 294 297 303 307 311 311 315 321 324 325 325 324 323 322 320 319 319 318 318 317 316 316 315 315 314 314 315 314 315 314 314 314 314 314
294 296 296 297 297 298 297 297 297 298 298 296 295 294 293 292 293 294 292 295 294 290 292 292 291 289 288 287 286 287 285 285 286 287 287 286 287 287 287 287 288 288 286 287 289 290 291 292 292 293 294 295 295 296 297 299 302 310 318 323 325 325 324 324 323 322 320 319 318 318 318 317 316 316 315 315 314 314 314 315 315 314 314 315 315
291 292 293 293 294 295 295 295 294 295 295 295 294 294 293 292 291 292 292 289 289 290 291 293 292 286 287 287 286 286 289 284 283 284 287 287 285 286 287 286 287 286 286 285 287 288 289 289 290 291 293 294 294 294 295 298 298 302 310 314 318 324 325 324 323 323 321 320 319 318 318 317 316 316 315 315 314 314 314 315 315 315 314 315 315
290 290 290 291 291 292 292 293 293 293 292 293 293 293 292 292 291 290 290 290 291 290 290 291 290 290 290 287 284 282 286 286 281 284 281 284 285 286 285 287 287 286 285 286 286 285 287 287 289 290 291 292 292 293 294 294 297 301 302 303 307 314 321 324 323 323 322 321 319 318 317 317 316 316 316 315 315 315 315 315 315 314 314 315 315
288 289 289 289 289 290 290 291 291 291 292 292 291 291 291 291 291 291 290 289 289 289 288 288 289 291 291 286 287 286 283 282 283 289 281 285 284 284 285 286 286 285 285 286 285 286 286 286 287 288 288 289 290 291 292 293 294 295 298 300 303 308 311 320 324 324 323 323 320 319 318 318 317 317 316 315 315 315 315 315 315 314 314 314 315
286 287 287 288 288 288 289 289 289 290 290 290 291 291 290 290 290 289 289 289 289 287 286 288 288 290 290 289 290 288 286 284 284 284 283 283 284 282 283 284 284 285 285 285 286 286 286 286 286 286 287 287 288 288 289 290 291 292 294 296 305 309 311 313 319 323 323 323 323 321 319 319 319 318 316 315 315 315 316 315 315 315 314 314 315
285 286 286 286 286 287 287 288 288 288 289 289 289 289 289 289 289 289 288 290 288 287 287 288 287 287 288 289 288 287 285 285 284 284 283 284 282 282 286 282 283 283 285 286 286 286 286 286 286 286 286 286 286 286 286 287 292 294 299 302 307 310 312 313 313 316 321 322 323 323 321 321 319 319 318 316 315 315 315 315 314 315 315 314 315
285 285 285 285 286 285 285 286 286 287 287 287 288 288 289 289 289 288 288 288 287 286 286 286 286 287 286 286 286 287 286 285 285 284 283 281 284 282 282 284 282 283 284 285 285 286 286 285 286 286 286 286 286 286 286 286 286 287 291 299 305 309 310 312 313 312 314 317 321 323 322 322 322 320 319 317 316 315 316 315 314 314 314 314 314
284 284 284 285 285 285 284 284 285 285 285 286 286 286 287 287 287 288 287 287 287 286 286 286 286 286 285 285 284 285 284 283 283 284 283 282 283 284 285 282 282 283 283 284 285 285 286 286 286 286 286 286 286 286 286 286 286 286 290 296 302 307 309 310 311 312 311 312 316 318 320 322 324 325 320 319 317 316 316 316 314 314 314 314 314
284 284 284 284 284 284 284 284 284 284 285 284 284 284 285 285 286 286 286 286 286 286 286 286 286 285 285 285 284 283 283 282 282 281 281 282 281 283 283 283 283 284 283 284 284 285 285 286 285 285 285 286 286 286 286 286 287 287 289 294 299 302 305 306 308 310 311 312 312 313 316 318 320 323 324 323 320 317 317 316 315 314 315 314 314
283 283 283 283 283 283 283 283 283 284 283 283 283 283 284 284 284 285 285 285 285 285 286 285 285 284 284 285 284 284 284 283 283 283 283 282 282 282 284 285 284 284 285 285 286 286 285 285 285 285 285 286 286 286 286 286 288 289 292 294 296 298 300 303 304 306 309 311 312 312 313 313 315 317 320 323 322 320 318 317 315 315 315 314 314
282 282 282 282 283 283 283 282 282 282 282 282 283 283 283 283 283 283 283 284 284 285 284 284 284 284 284 284 284 284 284 284 284 284 284 284 284 283 283 284 285 286 286 283 285 285 285 285 285 285 286 286 286 286 286 286 287 291 290 292 296 298 301 303 304 304 305 306 309 310 312 312 313 313 314 316 320 322 320 319 317 316 315 315 314
281 281 281 281 281 281 281 281 281 282 282 282 282 282 282 282 282 282 282 282 283 282 282 283 283 283 283 284 284 284 284 284 284 284 283 283 282 281 283 283 283 284 286 284 284 282 285 285 285 285 286 286 286 286 286 286 286 289 291 290 294 296 298 300 301 303 304 304 305 307 309 311 312 313 313 314 316 319 322 320 318 317 316 315 314
280 280 280 280 280 280 280 281 280 280 281 281 281 281 281 281 281 281 281 281 282 281 281 281 281 281 281 282 283 283 283 284 283 283 282 282 281 281 281 282 282 282 284 285 285 285 284 283 284 285 285 285 286 286 285 286 286 290 291 289 290 295 296 298 300 301 302 303 305 305 305 307 309 311 312 313 314 317 320 321 319 319 318 317 316
280 280 281 280 279 280 280 280 280 280 280 280 281 280 280 280 280 279 280 280 281 281 280 281 282 281 281 281 282 282 283 283 284 283 283 283 282 282 281 280 281 282 282 284 285 285 286 285 283 284 285 285 285 285 286 285 287 290 290 288 288 291 295 298 300 302 302 302 303 304 305 306 307 309 309 310 311 312 318 320 319 318 318 317 316
280 280 280 279 279 279 279 279 279 279 279 279 279 279 279 279 279 279 279 281 280 279 280 280 280 280 280 281 281 281 282 282 283 283 283 283 283 282 281 280 279 279 282 282 283 284 286 285 283 283 284 285 286 286 287 287 286 290 289 288 286 288 292 296 299 301 302 302 303 303 304 304 306 307 308 308 308 308 311 314 315 314 313 313 313
280 280 279 279 279 279 279 279 279 279 279 279 279 279 279 279 279 279 279 279 279 279 279 279 279 280 280 280 281 281 281 282 282 282 282 282 282 281 281 281 281 279 278 279 282 283 285 282 285 281 282 284 285 286 285 285 287 287 286 286 286 286 290 294 297 300 302 303 303 303 303 303 304 306 307 307 307 308 310 313 314 314 314 314 313
280 280 280 279 279 280 279 279 279 278 278 278 278 278 278 279 278 278 278 278 278 279 279 279 279 279 280 280 280 280 281 281 281 282 282 282 282 281 281 281 281 280 280 279 280 283 284 284 282 284 282 282 284 285 285 284 288 288 286 285 285 285 290 293 295 297 299 302 302 303 304 304 303 304 307 308 308 308 309 312 313 313 314 314 313
280 279 279 279 279 278 278 278 278 278 278 278 278 278 277 278 278 278 278 278 278 278 278 278 279 279 279 279 279 279 280 280 281 281 281 281 281 281 281 281 281 281 280 280 279 282 284 284 284 282 282 281 283 283 284 285 286 287 286 285 285 288 290 290 293 294 297 298 299 301 302 303 304 304 305 307 308 309 309 312 312 312 313 313 313
278 278 277 277 277 277 278 278 278 278 278 277 278 277 277 277 277 277 277 277 277 277 278 278 279 279 278 278 278 278 279 279 280 280 281 281 281 281 281 281 281 281 281 280 279 280 284 284 285 286 286 285 285 285 285 285 286 288 285 285 285 288 287 286 290 292 294 296 297 299 300 301 303 304 305 307 308 309 310 312 312 312 312 312 312
277 276 276 276 277 277 277 277 277 277 277 277 277 277 277 277 277 277 277 277 277 277 277 277 278 277 277 277 278 278 278 278 279 279 279 280 281 281 281 280 280 280 280 279 279 279 282 283 284 285 285 283 284 284 285 285 284 285 286 285 285 284 285 285 285 289 292 294 296 297 298 300 302 303 304 306 307 308 309 311 312 310 310 311 311
276 276 276 276 276 276 276 276 276 276 276 276 276 276 276 276 276 277 277 276 276 276 277 276 277 278 278 277 277 278 277 278 278 279 279 279 279 280 280 280 280 281 281 280 279 280 279 282 280 282 281 283 283 285 284 286 286 285 284 285 284 284 284 284 284 285 290 292 294 296 297 299 300 302 302 304 307 307 308 309 308 308 308 309 309
275 275 274 274 274 274 274 274 274 274 274 274 275 275 275 275 275 275 275 275 276 276 276 276 276 277 277 277 277 277 278 278 278 278 278 278 279 279 279 280 280 281 281 281 280 279 279 280 282 282 282 282 283 284 283 284 284 285 285 285 284 285 284 284 284 284 288 291 293 294 296 297 298 300 301 303 305 306 306 306 307 306 306 307 307
273 273 273 273 273 273 272 272 272 272 272 272 272 273 273 273 273 273 274 274 275 275 275 275 276 276 276 276 276 277 277 277 277 278 278 278 278 278 279 279 280 280 281 281 281 280 280 279 281 281 282 282 282 283 283 282 282 283 284 285 284 284 284 284 284 284 287 290 292 293 295 296 297 298 299 300 302 305 306 305 305 305 305 304 304
272 272 272 272 271 271 271 270 270 270 271 271 271 271 271 272 272 272 272 272 273 273 274 274 276 275 275 275 276 277 277 276 277 277 277 277 278 278 278 279 279 279 280 280 280 281 280 279 280 282 281 282 282 283 282 282 282 282 282 282 283 284 284 283 284 285 288 290 291 292 293 294 295 297 298 299 300 301 304 305 305 304 303 303 302
270 270 270 270 270 269 269 269 269 269 269 269 269 270 270 271 271 271 271 272 272 273 273 274 274 274 275 275 275 276 275 275 275 276 277 277 277 278 278 278 278 279 279 279 280 279 280 279 280 280 281 281 281 281 282 281 280 281 282 282 282 282 283 283 283 284 284 285 285 287 290 292 293 295 296 297 299 299 301 303 304 304 302 301 300
269 268 268 268 268 268 268 268 268 268 268 268 268 269 269 269 270 271 271 272 272 272 272 273 273 273 273 274 274 274 274 275 275 275 275 276 276 277 277 278 278 278 278 278 279 278 279 279 279 280 280 281 281 280 281 281 281 281 281 281 281 283 282 282 283 284 284 284 287 289 288 288 290 291 293 295 297 298 299 301 303 303 301 299 299
268 267 267 267 267 267 267 267 267 267 267 267 267 268 268 270 270 271 271 271 271 271 271 271 272 272 272 273 273 273 274 274 274 275 275 275 276 276 277 278 278 278 278 278 278 278 278 278 278 278 279 279 280 280 281 279 278 279 279 279 279 281 282 282 282 283 284 284 283 284 287 289 289 290 292 293 294 296 297 298 299 300 299 299 299
266 266 266 266 266 266 266 266 266 266 266 266 266 267 269 270 271 271 271 271 270 270 270 271 271 272 272 272 272 273 274 276 277 278 278 279 277 276 277 277 277 277 278 278 278 278 278 278 277 279 278 278 279 279 279 278 278 280 281 280 279 281 281 282 283 283 284 283 283 283 284 284 284 284 285 286 288 292 293 295 296 297 297 299 300
265 265 265 265 265 265 264 264 264 264 264 265 267 270 273 271 271 271 271 270 271 270 270 270 270 271 271 271 272 274 275 275 275 276 277 277 278 277 276 277 277 277 277 277 278 279 278 277 277 277 277 277 278 278 278 279 280 280 279 279 279 281 281 280 282 283 283 283 282 282 283 284 284 283 284 284 286 287 288 290 292 295 297 299 300
264 264 264 264 264 263 263 263 263 263 264 264 268 272 273 274 272 271 270 270 271 270 270 269 269 270 270 270 270 271 272 272 271 274 275 276 277 277 278 279 279 277 277 277 277 278 278 278 278 278 277 277 278 279 279 279 280 280 280 280 280 280 280 278 278 282 282 283 282 281 282 284 284 282 283 283 284 285 287 288 292 294 297 299 299
263 263 263 263 263 263 263 262 262 262 263 266 270 271 272 273 274 271 271 270 270 270 270 269 269 269 269 269 269 270 270 270 271 271 272 274 275 276 277 277 278 279 280 278 277 277 278 278 278 279 279 278 278 279 279 279 279 280 280 280 280 280 279 279 279 279 281 283 281 281 281 283 283 283 283 283 284 284 285 289 292 294 296 298 299
262 262 262 262 262 262 262 261 261 262 262 265 269 271 272 273 274 273 270 270 269 269 269 269 268 268 268 268 268 269 269 272 271 271 271 271 273 275 276 276 277 277 279 280 281 279 278 278 278 279 280 280 279 280 280 280 281 280 280 280 280 280 280 280 280 281 279 280 281 280 280 282 282 281 282 283 284 283 285 289 291 292 294 296 298
261 261 260 261 261 261 261 261 261 261 261 264 269 271 272 272 273 273 270 270 269 268 268 267 267 267 267 267 267 268 269 270 270 271 271 271 271 272 272 272 272 274 277 278 278 280 280 279 278 277 279 281 280 281 282 283 281 280 280 280 281 280 279 280 281 282 282 282 280 280 280 281 281 281 281 283 283 283 284 286 289 291 293 294 296
260 260 259 259 260 260 260 260 260 260 260 266 269 270 271 272 273 273 269 268 267 267 267 267 267 267 267 268 268 268 268 269 269 270 270 270 270 271 272 272 273 274 274 274 275 276 277 278 278 278 278 279 279 280 281 281 281 281 282 281 282 282 282 283 282 282 282 281 280 280 278 282 281 280 281 283 283 283 284 287 289 290 291 293 294
259 260 259 259 259 259 259 259 259 259 260 266 268 269 270 272 273 269 267 267 266 267 267 267 267 268 268 268 268 268 268 268 270 273 273 271 271 271 271 272 273 274 275 277 279 280 278 278 279 280 280 280 282 281 282 281 281 281 282 282 283 282 281 280 279 281 282 281 280 280 279 281 280 280 282 283 282 282 283 283 287 290 291 292 293
259 258 258 258 258 258 258 258 258 258 259 263 267 269 270 271 270 268 267 267 266 266 266 267 267 268 268 268 268 268 268 268 271 274 275 275 272 272 272 271 272 272 272 275 278 280 280 281 282 282 283 284 285 285 286 286 285 284 283 281 279 280 279 278 279 280 280 282 279 281 280 280 281 280 281 281 280 282 282 282 283 288 290 291 292
258 258 258 258 258 258 258 258 258 258 258 262 267 268 270 271 270 268 267 266 266 266 267 267 268 268 268 270 270 269 268 269 273 275 276 274 272 271 271 271 271 271 271 273 274 275 279 280 280 281 282 282 283 284 284 285 286 285 282 280 281 282 279 279 278 279 280 281 280 281 279 279 281 280 279 280 280 280 281 282 282 283 288 290 291
257 257 257 257 257 257 257 258 260 259 258 261 265 267 269 270 269 268 268 267 266 267 266 267 268 268 268 269 271 272 271 272 275 276 277 275 272 272 272 271 270 270 270 272 272 272 273 274 275 276 278 279 279 279 280 283 284 284 282 281 282 280 279 280 280 280 278 279 282 281 279 279 281 278 280 278 278 281 281 281 282 282 282 284 286
Wind_Speed
5 7 6 6 5 5 4 3 4 6 5 5 6 6 5 4 3 3 1 1 0 0 0 1 1 1 1 2 3 4 4 3 3 4 4 4 5 6 8 9 10 10 10 10 10 11 8 9 9 9 8 5 8 8 8 8 7 4 5 6 6 4 3 3 5 7 5 5 5 5 5 4 2 3 3 3 5 5 5 4 5 4 6 4 1
4 2 6 5 4 3 2 2 3 3 3 3 2 2 3 3 2 2 1 1 1 0 0 1 2 1 0 1 3 3 3 3 3 3 3 4 4 5 8 9 10 11 11 11 12 12 13 9 10 11 9 8 8 10 9 6 6 6 7 6 7 6 4 1 5 7 6 5 5 5 6 5 3 3 4 4 4 5 5 5 5 5 6 7 7
6 6 4 5 5 5 4 2 2 3 3 1 1 0 1 1 2 2 2 1 1 1 1 3 3 3 2 2 3 2 3 2 2 3 3 3 3 3 4 7 9 10 11 11 12 12 13 13 12 12 10 10 7 10 9 8 6 7 8 8 7 7 6 6 3 5 6 6 6 5 6 5 4 3 4 5 4 4 5 4 4 3 3 3 4
3 4 4 4 5 5 3 4 4 2 2 1 2 2 3 2 2 2 1 1 0 1 1 2 4 4 3 4 3 3 4 3 3 3 3 3 3 3 3 4 6 8 9 11 11 12 13 13 14 13 11 11 10 11 12 9 9 7 8 9 9 7 7 5 3 5 6 6 6 6 6 5 4 4 4 6 3 4 4 4 4 4 4 5 5
3 2 2 3 4 4 3 5 3 3 2 3 3 3 3 3 2 2 1 1 0 2 1 1 2 4 3 4 3 4 3 4 4 4 4 4 3 2 3 3 3 6 8 8 10 11 12 12 12 14 11 13 12 13 10 10 11 8 8 9 10 10 8 7 4 4 6 8 7 7 5 5 5 5 5 5 6 5 5 5 6 6 6 6 6
3 1 2 3 3 3 3 3 2 3 3 3 3 3 3 2 2 1 1 1 3 2 2 5 3 2 3 3 3 3 2 4 4 4 4 4 4 3 3 3 3 3 4 7 8 9 11 11 12 12 11 12 12 13 13 11 13 12 8 9 10 9 10 9 7 6 7 8 8 7 6 6 6 6 6 6 7 7 7 8 8 8 7 7 6
5 4 4 3 1 0 1 2 2 2 3 2 3 2 2 2 3 2 1 2 2 3 1 3 4 6 5 3 4 4 3 3 3 4 4 4 4 4 3 3 3 4 4 4 6 8 9 10 10 10 11 11 11 11 10 11 13 12 9 10 10 10 11 11 8 8 7 8 9 8 8 8 7 7 7 7 7 8 8 8 8 8 8 7 7
4 5 4 3 3 5 4 3 3 2 2 2 2 2 2 2 2 2 2 5 2 4 1 4 3 5 4 4 4 3 4 4 5 5 5 3 4 4 3 4 3 3 4 4 5 5 9 9 9 9 9 8 8 10 9 11 13 14 12 12 11 11 12 9 9 10 9 9 9 9 8 8 8 8 8 7 8 8 8 8 9 9 8 8 8
5 6 6 5 4 4 4 5 4 4 3 2 1 1 1 1 1 1 1 3 2 4 4 3 4 4 4 4 4 4 5 5 5 6 4 4 4 4 4 4 3 4 4 4 5 5 7 8 9 9 8 7 7 9 10 10 12 14 15 16 13 14 12 10 10 10 9 8 9 10 9 9 8 8 8 8 9 9 9 9 9 9 9 9 9
8 7 7 6 6 7 6 6 4 4 3 3 4 5 4 4 4 3 3 2 3 4 5 4 3 5 5 5 5 5 6 6 5 4 4 6 4 4 5 4 4 5 5 5 4 4 5 7 9 9 8 7 8 9 10 10 12 14 15 16 18 12 11 11 11 11 11 11 11 11 10 9 9 9 10 10 10 10 10 10 10 10 10 10 10
10 9 8 8 8 7 6 4 2 3 4 4 3 3 3 2 3 3 2 1 3 3 4 4 5 4 5 7 5 6 6 5 5 6 6 6 5 5 3 6 4 5 5 4 4 4 5 6 6 6 6 8 8 10 10 10 11 13 15 17 18 13 15 14 13 13 12 11 11 11 11 11 10 10 11 11 10 11 11 11 11 11 11 11 11
11 10 10 9 8 6 6 5 5 6 5 5 4 3 2 2 1 1 3 2 0 1 2 3 3 4 7 6 5 6 6 6 5 7 6 5 6 4 6 5 5 6 4 4 5 5 5 5 5 6 6 7 9 9 10 10 9 9 11 13 16 14 15 15 14 14 13 13 13 14 13 11 10 11 12 12 12 12 12 12 12 12 12 12 12
11 10 10 9 8 8 8 8 6 6 5 4 3 3 1 1 1 0 1 2 1 1 0 1 3 6 3 4 6 4 7 5 6 7 7 6 4 6 6 5 6 5 6 5 5 5 5 5 5 5 6 5 7 8 9 10 9 9 11 13 15 16 16 16 16 15 15 14 14 14 14 13 12 12 13 13 13 13 13 13 13 13 13 13 13
10 10 10 9 9 8 8 8 7 7 5 4 4 4 3 3 2 2 1 0 1 0 0 0 2 2 6 8 6 6 4 2 6 6 5 5 5 5 6 6 7 6 3 3 5 4 5 5 5 5 5 5 6 6 6 7 7 10 12 13 16 18 17 17 17 16 15 15 15 15 15 15 15 14 13 14 15 15 14 14 13 14 14 14 13
11 11 10 10 9 9 9 7 8 7 8 8 7 7 6 4 4 3 4 1 1 1 0 1 3 1 2 3 4 11 5 4 2 3 6 6 4 5 4 4 8 4 3 3 6 5 4 4 5 5 6 6 6 5 6 6 8 10 11 12 12 15 19 20 18 18 18 17 16 17 16 16 16 15 15 15 16 16 16 15 14 14 15 15 14
11 10 9 10 10 9 8 9 9 8 7 7 8 8 8 7 6 4 2 4 3 3 1 0 1 3 5 1 3 1 9 2 4 6 2 4 3 5 3 7 7 4 2 5 5 4 6 4 5 6 6 6 5 5 6 6 9 11 12 11 11 13 15 18 20 20 19 18 19 18 18 17 17 17 16 16 16 17 17 16 15 15 16 16 15
11 11 10 10 10 9 9 8 9 9 8 8 8 7 6 5 6 6 5 3 5 3 2 1 1 0 1 3 4 2 2 5 9 10 2 1 2 3 4 4 5 4 4 6 6 6 6 5 6 5 7 7 6 6 6 7 6 6 8 11 12 11 13 16 18 20 20 20 20 19 19 19 18 19 17 16 17 18 18 17 16 16 16 16 16
11 11 11 10 11 10 9 10 10 9 8 7 7 9 9 9 8 5 6 5 2 3 3 3 0 2 2 3 3 4 6 5 6 9 3 3 7 3 4 4 4 5 5 6 7 7 5 7 5 7 7 6 6 6 6 6 6 6 7 9 13 14 14 16 18 20 21 20 21 21 21 20 20 19 18 18 18 19 18 19 18 17 17 17 17
11 11 11 10 10 10 10 9 9 9 8 9 10 8 6 6 6 8 6 5 5 5 6 6 5 2 1 3 3 3 2 3 5 6 14 3 1 4 6 4 4 4 6 7 7 6 7 6 7 7 7 6 6 7 6 7 8 8 12 14 17 17 17 16 16 18 20 22 22 23 23 22 20 20 19 18 18 20 19 19 19 18 18 18 18
11 11 11 11 10 10 9 9 9 9 8 8 8 7 8 7 7 5 5 6 5 5 4 5 4 5 4 5 4 3 3 3 4 6 6 11 15 2 4 7 4 5 5 7 7 7 8 6 7 7 7 7 7 7 8 8 8 8 9 16 18 19 19 19 18 17 18 19 22 23 23 24 22 21 21 18 18 19 20 20 20 20 19 19 19
10 11 11 11 10 10 10 10 10 8 7 7 7 7 7 7 9 9 8 7 5 3 3 5 4 4 6 4 4 4 3 3 3 3 4 6 13 10 10 2 4 5 7 7 7 7 7 8 7 7 6 7 7 7 8 8 8 8 9 16 19 20 21 21 21 19 19 19 21 23 25 24 23 24 22 21 19 18 20 20 21 21 20 19 19
9 9 10 9 9 9 9 10 10 9 8 8 8 9 8 7 6 6 6 7 5 5 4 4 4 3 2 3 3 4 4 2 1 2 3 6 10 12 11 13 15 5 3 5 8 7 8 7 7 6 7 7 7 8 8 9 9 8 10 16 19 20 21 22 22 21 21 20 20 19 23 26 25 25 23 22 21 20 20 20 21 21 21 20 20
7 8 9 9 8 8 8 8 7 8 9 9 9 8 8 7 7 7 7 7 6 7 6 4 3 4 4 3 3 3 3 3 6 6 4 5 7 9 10 11 12 17 5 6 6 8 7 6 6 7 8 8 8 7 8 9 10 10 15 15 17 18 20 21 21 21 21 22 23 22 23 23 24 25 25 23 21 23 21 22 21 21 21 21 20
8 9 10 10 9 9 8 8 8 8 8 6 7 7 7 7 8 7 7 6 6 7 6 7 7 6 5 4 4 3 3 4 5 4 5 7 6 11 9 10 14 11 5 6 6 8 8 8 7 7 8 8 8 8 8 8 10 15 15 17 19 20 21 22 23 22 22 23 23 22 22 23 23 23 23 25 23 21 24 22 22 22 22 22 21
8 8 8 8 6 8 8 8 8 8 7 7 7 7 7 7 7 7 7 7 6 6 7 6 6 6 6 6 5 4 5 5 4 4 5 5 5 8 8 5 11 15 11 5 7 3 7 8 7 8 8 8 7 7 8 8 8 12 16 13 18 19 21 21 22 23 23 23 23 23 22 23 23 23 23 23 24 25 22 23 22 22 23 23 22
6 6 5 6 6 5 5 6 5 5 5 5 6 5 6 6 6 7 6 6 6 6 6 5 5 4 3 6 6 6 6 5 4 4 5 4 6 6 8 5 6 11 10 10 6 8 3 3 5 7 6 6 7 7 7 8 9 13 17 13 13 19 20 21 23 23 23 23 24 23 22 21 23 23 23 24 25 25 24 24 24 24 24 23 23
4 3 3 4 4 5 5 6 6 6 6 7 7 6 5 5 4 4 4 4 5 6 5 5 7 7 6 5 6 6 6 6 5 6 4 5 5 6 5 10 9 7 10 8 12 11 11 7 6 6 7 7 7 7 8 8 11 14 14 11 10 14 18 22 23 24 24 24 24 24 23 22 22 24 24 23 23 24 25 26 26 26 25 24 24
3 2 4 3 4 4 4 4 4 5 5 5 6 6 6 7 7 6 7 4 6 6 5 4 6 6 6 5 4 6 6 6 5 6 5 6 5 5 5 6 8 13 8 10 9 13 6 7 3 6 6 7 7 7 8 8 7 12 13 9 8 8 14 20 23 24 24 24 24 24 24 22 22 22 23 23 23 23 22 22 22 21 20 20 20
5 4 5 5 4 5 5 5 4 4 5 5 5 5 6 6 6 7 8 7 7 7 7 6 5 5 5 5 5 6 6 6 6 5 6 5 5 6 5 7 7 9 9 9 14 11 10 2 8 3 3 5 7 6 6 7 9 10 7 7 7 8 11 18 22 23 24 24 24 24 23 23 23 23 22 23 23 24 24 23 21 20 18 17 18
6 7 7 8 8 8 8 8 7 6 6 6 5 5 5 5 5 4 5 6 7 6 6 6 7 6 6 6 5 6 6 6 7 6 6 6 6 6 6 6 6 8 9 11 14 7 11 7 5 8 2 5 5 6 4 6 7 9 7 7 7 8 12 17 19 21 22 24 24 24 24 24 24 24 23 22 23 24 25 24 23 21 20 18 20
6 7 8 8 8 7 6 6 6 7 5 6 5 6 5 6 5 6 5 5 6 7 6 6 6 6 7 9 7 6 6 6 7 7 6 6 6 6 6 6 7 8 10 9 13 8 4 11 7 4 5 4 5 6 5 6 8 9 8 7 8 10 15 12 16 18 21 22 22 22 23 24 23 24 24 23 23 24 25 24 24 22 20 21 24
4 4 4 4 5 5 5 6 7 6 7 6 6 6 6 5 6 7 7 6 7 7 8 6 6 6 7 8 8 7 7 6 7 7 7 7 6 7 7 7 7 8 7 9 12 17 7 7 14 10 11 10 9 10 10 7 8 12 9 9 9 11 9 9 12 17 19 21 22 23 23 24 25 24 23 24 24 24 22 22 24 24 22 23 24
3 4 3 4 4 5 5 6 6 7 7 8 7 7 7 7 7 7 7 7 8 9 8 9 6 5 7 8 8 7 5 8 8 7 6 7 7 7 7 7 8 7 7 8 12 15 11 6 10 10 7 6 8 5 9 8 7 7 9 8 7 7 8 8 9 13 17 20 22 23 23 24 25 25 24 23 23 24 23 23 24 22 22 23 24
4 4 5 4 5 6 5 6 5 6 6 6 6 6 7 8 8 6 7 9 9 9 8 9 8 6 7 9 10 8 5 8 9 9 7 7 7 7 8 7 8 9 6 8 11 12 17 8 6 7 6 6 11 7 7 11 9 7 8 9 6 6 8 8 8 8 13 17 20 22 23 24 25 25 25 23 22 23 23 24 24 23 22 23 23
4 4 5 4 5 4 4 5 5 5 6 6 6 7 8 8 9 9 8 8 9 9 10 10 9 8 9 9 11 9 7 9 9 9 7 8 7 8 10 8 9 9 8 7 9 13 15 15 8 8 7 5 8 11 6 7 9 6 9 9 8 6 6 7 8 8 10 16 19 21 23 24 24 24 25 25 22 23 23 25 24 23 23 23 23
6 5 6 8 8 9 8 8 8 8 8 8 8 7 8 9 9 10 9 9 9 9 10 11 11 10 10 11 11 9 8 11 11 9 7 7 8 8 9 9 9 10 10 8 9 11 13 16 13 9 7 8 7 8 7 7 8 8 8 10 6 7 7 6 8 8 9 15 17 19 21 23 24 24 25 25 25 23 24 25 26 26 25 24 23
7 7 7 7 7 7 8 8 8 7 7 8 8 8 7 7 8 9 9 9 9 10 10 11 11 11 11 12 12 10 9 11 12 11 8 10 9 9 10 9 9 9 9 9 10 9 12 15 16 11 7 8 7 8 6 8 9 8 7 8 9 8 8 7 7 7 9 15 18 19 19 21 23 24 25 25 26 26 24 24 26 26 26 26 24
6 5 6 6 6 7 7 7 7 7 8 8 8 9 9 8 9 9 9 10 10 10 10 10 10 9 10 11 12 11 12 12 13 13 12 12 11 11 11 11 10 9 10 11 10 10 11 14 14 17 11 9 9 6 7 7 8 10 10 9 7 7 8 9 8 7 5 6 7 9 13 17 20 23 24 25 26 27 27 25 24 25 25 25 24
7 8 8 8 7 8 8 7 9 9 9 8 9 9 9 9 9 10 10 10 11 9 10 11 10 10 10 10 10 11 11 11 12 13 13 14 12 14 12 12 11 11 11 11 11 11 11 13 14 14 14 10 8 11 6 7 8 9 11 10 10 7 7 8 9 6 6 8 10 14 13 11 11 11 17 23 25 26 27 26 25 25 24 24 23
9 9 9 10 9 8 7 8 8 8 8 7 8 8 9 9 10 11 10 10 11 9 11 11 10 10 11 10 10 10 11 11 12 12 12 13 12 14 12 11 11 12 12 12 11 11 11 12 12 14 13 12 9 6 5 3 5 8 7 7 11 11 9 6 8 9 5 7 7 7 9 12 13 15 19 20 24 26 26 25 26 25 25 23 23
7 8 8 8 9 9 8 8 9 8 7 7 6 8 11 12 11 12 13 13 13 14 13 13 11 10 9 10 9 10 12 18 23 21 20 19 15 14 13 11 12 12 13 12 12 11 11 11 13 12 13 13 12 10 8 7 9 11 7 6 8 11 9 8 9 8 8 7 6 7 8 8 8 9 9 10 12 18 20 24 20 25 24 23 23
7 7 7 7 7 8 9 9 8 7 7 6 10 18 17 13 14 12 13 13 13 13 14 15 14 13 12 11 11 19 20 21 21 22 23 23 24 19 17 15 13 13 13 13 13 11 11 12 13 12 14 14 14 11 10 9 7 6 8 6 10 11 10 9 10 9 6 7 7 9 9 7 8 9 8 10 11 11 9 12 13 16 18 22 23
7 7 7 8 7 7 8 9 9 7 7 7 17 19 20 22 15 13 13 14 14 14 13 14 14 14 13 13 12 14 15 16 15 20 21 22 23 25 27 26 23 18 15 15 15 13 12 12 12 13 13 15 16 13 12 10 8 7 8 7 9 9 10 8 12 8 4 7 8 8 10 7 8 10 10 11 10 8 9 11 15 19 20 20 24
6 6 6 6 7 7 7 8 8 8 8 12 19 21 21 21 19 14 13 13 13 12 13 14 13 13 14 13 13 11 11 12 13 13 16 20 22 23 25 25 25 27 26 20 17 15 14 13 13 14 13 15 15 13 11 9 9 8 8 8 9 10 11 10 9 12 4 8 5 7 10 5 7 9 11 10 9 7 9 12 17 19 21 23 24
5 6 7 7 7 7 7 9 10 8 9 15 20 22 21 21 22 19 12 12 12 13 13 13 13 13 13 14 13 11 11 19 15 14 14 15 18 22 22 23 23 24 25 27 28 22 17 17 16 17 15 15 15 14 11 9 7 10 9 10 8 9 10 11 11 11 5 6 6 7 11 6 8 9 11 10 8 7 9 14 20 20 21 22 23
5 5 5 7 7 7 8 9 9 9 9 15 21 22 22 22 21 19 13 13 12 12 13 13 12 13 13 13 13 13 13 14 13 13 14 16 17 15 12 11 11 16 21 25 26 28 23 17 16 18 18 14 14 13 11 7 10 11 10 12 9 10 9 12 11 12 7 7 8 7 11 8 6 7 11 10 6 7 9 12 18 20 22 23 23
6 6 7 7 7 6 9 8 10 10 8 19 21 22 22 22 22 19 11 11 11 12 12 12 13 13 14 13 14 14 14 14 13 17 17 17 16 15 15 14 15 14 13 13 14 14 14 15 18 20 20 19 18 18 17 14 13 13 12 13 13 13 12 11 11 10 10 6 8 7 13 11 4 7 11 9 4 8 10 12 19 20 23 24 24
4 5 5 5 8 9 8 9 9 11 10 19 21 22 22 22 23 13 10 11 11 11 12 13 13 13 13 13 13 14 15 16 19 26 23 19 16 16 16 14 14 14 13 13 20 21 18 17 16 16 15 17 20 18 17 15 13 13 13 13 13 13 13 13 14 11 12 6 10 9 9 12 5 8 10 6 5 9 8 7 14 22 22 23 24
6 6 6 6 6 8 9 8 10 11 10 16 21 22 22 23 18 9 10 9 10 12 13 13 13 13 13 13 14 15 16 15 22 27 26 24 15 13 12 14 14 14 14 13 19 24 24 25 27 30 32 32 31 31 31 33 24 17 13 13 15 12 14 15 15 13 13 7 6 10 10 13 7 7 9 4 6 9 8 8 9 16 22 22 23
7 6 7 8 6 6 9 10 9 12 11 14 22 22 22 22 19 12 10 9 8 9 13 12 12 12 14 22 21 17 16 17 23 26 26 21 14 13 13 14 14 13 13 12 12 13 22 26 26 27 27 27 30 31 31 31 31 25 16 18 14 11 14 13 15 12 10 9 8 10 9 12 8 5 6 5 5 5 6 7 8 9 17 19 24
7 6 6 8 8 7 7 9 14 14 12 13 20 22 23 22 17 11 9 8 7 9 13 12 12 11 12 14 24 23 20 21 26 25 27 22 14 12 12 13 14 12 12 12 13 13 12 13 14 14 14 16 16 14 16 27 27 23 17 18 13 11 12 12 12 11 12 11 9 11 11 8 10 5 7 5 8 7 5 6 7 7 7 7 10
Wind_Direction
176 165 159 158 147 138 127 151 169 189 171 177 172 180 182 168 165 155 135 138 100 65 71 52 69 88 82 314 318 313 313 318 312 313 317 323 325 318 322 323 322 319 312 304 297 301 270 248 264 250 256 241 254 252 253 268 266 266 259 274 283 299 302 333 323 314 311 304 306 302 283 272 274 302 307 308 304 283 274 274 270 272 314 299 331
158 168 158 166 142 129 175 195 207 167 163 175 163 153 175 163 151 138 156 180 238 319 59 3 355 11 60 295 287 276 281 287 299 300 302 313 317 320 322 325 324 321 318 316 308 302 306 273 250 258 258 253 252 258 257 251 268 279 273 278 276 279 306 299 315 307 299 301 290 294 291 284 275 286 298 301 294 288 274 274 271 287 289 275 292
160 163 154 152 167 169 178 148 197 195 190 222 43 8 92 134 171 184 184 209 296 25 16 337 336 335 357 327 290 310 290 278 281 285 295 292 307 314 316 322 324 321 321 315 307 303 300 307 294 258 258 262 255 264 265 248 253 261 272 275 283 280 276 296 297 289 297 297 295 279 279 283 294 291 294 282 277 276 281 270 264 262 282 291 296
166 160 150 153 168 175 172 183 207 151 136 116 125 110 134 124 111 112 114 117 78 7 39 353 324 319 340 327 325 318 305 304 296 291 283 284 291 302 313 309 315 319 319 317 310 310 308 308 310 283 262 266 253 245 251 259 252 248 260 271 269 268 270 270 271 284 290 288 283 277 266 282 281 286 287 292 299 302 285 285 280 285 285 288 292
173 156 146 125 123 131 156 207 191 132 128 129 126 122 113 116 88 86 89 91 20 293 349 22 308 302 332 306 335 316 314 321 306 312 307 299 294 296 298 298 304 312 316 313 316 312 308 302 301 314 295 262 262 267 273 265 257 239 251 260 271 275 271 266 271 272 278 279 270 268 263 259 264 270 284 286 290 284 283 280 281 279 285 285 281
31 51 91 143 136 146 176 207 128 134 124 125 131 141 143 139 144 118 184 223 257 275 331 300 292 296 299 294 315 279 292 308 307 300 299 291 291 303 297 303 303 304 301 307 308 310 307 302 306 302 305 320 306 288 278 250 259 261 236 252 261 259 260 261 265 273 271 261 264 262 264 260 262 265 273 282 278 280 277 275 275 275 274 274 269
41 62 39 20 20 14 353 26 87 108 120 125 137 135 133 166 148 186 258 286 282 296 290 276 293 299 289 303 289 293 294 283 294 287 286 283 293 285 291 294 294 298 298 300 303 304 306 311 309 303 307 305 307 303 293 267 260 262 250 253 250 250 256 261 255 257 255 267 260 253 250 253 244 256 269 273 276 273 272 270 266 269 267 265 270
58 52 53 46 38 26 19 40 52 66 68 75 107 141 144 158 188 178 224 266 298 290 306 280 288 282 285 293 288 305 303 305 294 285 260 275 285 296 296 286 283 282 289 292 296 298 303 309 305 303 304 315 315 313 298 274 269 263 252 246 253 250 254 258 254 249 239 243 254 255 255 256 263 257 256 262 269 271 271 271 271 268 268 268 266
65 59 65 52 49 50 44 51 39 40 43 53 46 42 125 195 260 338 311 297 289 282 303 290 292 286 301 300 298 301 287 263 260 257 279 273 276 281 284 275 270 280 277 278 284 289 301 299 304 306 313 317 313 298 292 277 270 267 256 258 246 239 255 251 251 255 252 234 245 249 246 250 253 260 262 260 262 265 266 264 264 263 262 261 262
36 41 52 48 47 47 42 42 47 51 58 43 31 26 20 9 342 28 4 336 307 304 296 314 303 303 303 294 291 285 270 270 261 270 267 275 263 259 254 268 283 270 263 262 263 284 288 292 297 302 307 305 298 290 286 280 268 266 269 266 269 255 248 243 243 246 246 239 239 240 242 242 241 248 253 255 257 259 259 257 258 258 258 259 259
32 34 43 40 42 40 44 40 74 96 77 64 51 45 41 34 5 344 38 351 303 315 299 314 313 308 294 282 281 270 272 274 279 270 258 248 250 249 238 251 243 255 257 255 268 271 272 276 283 290 291 293 298 295 294 285 278 273 266 266 270 252 241 241 237 240 238 243 245 242 238 236 239 245 250 251 254 256 254 254 254 255 255 255 255
34 34 40 39 41 38 43 34 36 47 51 44 36 45 42 16 0 308 318 318 230 317 359 331 304 297 282 290 277 277 275 258 266 258 259 251 247 249 247 247 236 249 245 242 246 248 255 265 274 275 281 289 294 296 292 289 301 303 293 276 264 250 240 242 241 243 240 233 239 242 237 237 240 244 249 252 254 252 250 251 252 254 253 253 252
31 35 37 40 41 36 36 30 28 41 47 47 34 40 61 84 78 104 281 349 328 73 121 127 343 305 310 302 307 266 257 266 259 267 257 258 253 244 250 256 254 253 244 231 234 239 243 254 260 268 276 282 287 290 290 290 293 293 282 274 262 256 246 243 247 245 246 238 237 239 235 232 236 240 248 253 253 250 247 246 249 250 250 250 249
31 34 39 36 36 34 33 28 26 28 38 38 31 37 42 40 26 8 38 329 281 246 240 36 351 341 333 324 313 310 297 266 258 270 290 278 252 251 257 245 259 254 285 281 271 261 249 242 248 260 264 268 272 278 287 289 289 285 280 276 261 251 251 248 248 246 241 243 242 241 241 236 242 242 246 250 252 250 247 246 248 248 248 247 245
29 31 36 31 32 35 27 22 29 20 27 25 23 23 18 23 31 25 334 351 284 315 92 110 274 242 229 312 321 344 327 342 343 285 269 267 259 260 278 288 269 272 262 262 264 268 272 266 262 257 255 254 259 265 272 276 274 278 279 279 284 276 256 250 250 247 244 241 242 247 249 250 249 249 253 251 252 250 246 245 245 247 246 244 244
31 32 37 37 34 34 28 29 25 24 28 32 25 21 13 13 12 20 43 342 353 331 19 153 154 355 333 16 275 98 315 316 315 288 277 267 259 261 255 256 260 287 316 270 275 281 267 264 259 258 261 260 256 257 257 258 270 276 275 277 280 275 274 262 254 249 246 245 244 242 245 249 249 252 254 253 252 250 247 244 244 245 244 244 242
36 34 35 35 34 33 35 31 33 25 26 31 28 19 20 21 14 12 17 359 338 338 333 17 260 113 315 330 334 338 231 281 336 299 348 10 288 254 265 274 288 291 259 261 256 251 250 252 250 252 252 248 250 250 252 255 261 263 271 272 267 266 269 268 261 255 250 247 247 245 241 242 245 249 252 250 251 250 248 245 243 243 244 243 242
39 38 36 35 35 31 32 32 30 27 27 32 29 23 18 18 10 15 12 16 348 344 328 329 288 274 182 195 186 267 314 308 354 304 323 221 276 316 276 259 260 262 254 260 260 258 241 250 246 253 250 250 250 255 254 256 250 252 251 258 259 257 255 258 259 255 253 252 250 249 247 238 235 244 250 253 250 248 248 245 243 241 243 242 242
39 38 36 35 37 35 34 36 35 30 21 29 28 21 10 18 8 25 20 11 25 11 348 326 337 324 331 272 270 236 186 315 281 322 311 319 137 319 302 291 265 252 261 252 260 265 257 240 251 247 250 245 248 245 249 251 249 245 245 248 253 253 252 250 253 256 256 254 252 250 252 255 244 228 230 236 246 249 248 246 244 243 242 243 242
37 35 33 33 33 35 33 36 38 33 31 33 25 7 10 11 18 19 28 34 28 30 341 348 18 306 348 328 310 303 240 228 232 243 273 301 302 265 253 281 285 272 259 267 261 252 261 251 248 248 245 244 240 240 242 244 244 246 250 249 249 251 251 250 246 245 250 256 258 256 252 251 254 237 224 220 231 246 246 246 245 244 243 243 243
38 35 31 30 30 29 28 32 34 31 32 31 27 24 22 14 9 10 9 8 24 10 28 346 359 323 343 329 343 318 322 256 246 200 244 292 289 304 304 303 299 258 262 250 262 258 248 252 244 244 244 245 236 238 241 245 248 245 247 248 248 249 249 249 247 244 244 247 252 255 256 258 261 263 244 225 219 225 240 243 245 243 243 243 244
31 34 33 30 30 27 28 28 26 23 26 24 22 23 20 17 15 9 8 15 5 11 5 332 341 321 336 306 335 327 334 340 3 330 285 211 267 298 306 312 309 288 229 264 256 252 249 246 250 241 242 243 238 233 233 235 240 242 245 244 245 247 249 250 250 248 245 242 243 248 253 255 258 263 265 254 230 220 226 240 241 244 243 241 241
27 28 30 25 27 29 28 26 26 24 23 21 18 14 9 9 7 11 20 19 7 359 357 353 347 339 332 341 304 295 273 291 291 293 280 294 299 286 301 301 297 302 279 251 257 256 252 244 240 241 238 240 241 234 232 236 237 240 241 244 244 244 246 248 250 250 249 247 244 243 244 248 253 258 262 264 254 221 223 227 238 240 242 240 240
25 22 19 13 17 18 19 21 23 19 21 16 16 13 7 7 9 11 5 4 7 7 359 353 350 341 331 326 306 282 278 256 263 266 272 281 276 290 297 308 299 280 299 293 262 263 257 244 235 239 237 239 238 231 233 234 238 236 241 242 240 241 243 245 245 245 246 248 248 246 244 244 246 249 253 259 262 257 232 222 227 233 238 241 240
20 21 10 9 10 13 13 12 10 9 7 13 11 10 11 9 7 5 2 3 358 358 357 344 341 336 319 316 311 304 276 269 273 262 270 265 272 287 280 278 283 300 306 308 296 257 237 249 232 233 237 237 244 236 233 234 236 240 239 246 240 240 241 244 247 247 246 246 246 247 246 245 246 245 246 248 253 256 257 234 227 230 235 239 241
17 18 354 354 6 6 6 9 9 4 8 8 10 7 8 8 0 3 356 340 348 354 348 337 335 322 315 318 320 309 296 294 281 285 271 288 282 265 290 280 270 287 295 306 289 307 302 239 251 247 242 247 243 242 240 234 242 243 240 238 238 237 236 236 239 242 244 245 246 245 244 245 245 245 245 245 245 247 250 248 231 228 233 236 238
16 345 355 5 355 359 1 4 0 0 0 3 2 1 1 359 2 352 343 341 345 343 342 346 338 335 334 325 309 306 297 296 299 282 271 255 254 271 282 298 295 274 289 288 298 272 278 273 234 238 242 238 246 242 240 238 238 244 247 242 247 242 238 239 239 240 240 242 242 243 244 243 243 243 245 244 243 242 243 243 239 232 231 234 236
350 5 356 7 359 360 357 356 351 356 360 0 356 357 354 356 349 351 345 341 342 340 331 336 327 328 324 318 319 302 300 297 288 279 275 264 260 268 263 264 280 297 295 295 289 287 288 285 292 246 235 245 247 242 255 251 257 250 249 246 242 245 241 242 243 243 242 241 241 242 242 243 243 242 242 244 244 240 239 244 245 241 234 233 233
8 13 5 8 7 4 1 358 0 358 359 358 356 349 350 350 344 342 339 334 339 334 331 331 318 314 313 313 304 297 298 303 299 283 272 271 262 256 243 250 254 272 293 289 289 294 303 164 298 290 250 255 262 263 259 250 253 253 255 246 242 242 242 243 243 245 245 245 245 245 242 241 242 242 242 242 244 243 237 236 238 236 235 230 230
6 1 3 1 3 4 2 357 356 1 2 355 354 346 344 341 327 320 310 317 321 319 322 318 317 318 310 308 307 303 298 303 294 293 289 274 271 261 253 248 236 250 264 279 280 272 292 281 230 282 289 266 266 279 280 280 279 273 263 257 246 244 247 246 246 247 248 249 249 248 246 243 240 241 241 242 242 241 237 232 229 228 227 228 231
5 1 1 357 356 354 354 349 352 354 356 352 346 343 339 334 326 321 316 318 317 314 312 319 312 318 313 310 307 299 300 300 297 298 292 287 274 267 259 251 243 238 257 262 281 262 197 288 271 232 275 280 271 267 267 270 268 266 263 254 246 241 245 250 249 248 248 248 249 250 250 249 244 240 238 238 240 241 236 229 227 225 223 225 228
3 352 353 344 341 343 345 348 348 351 351 348 346 341 338 332 325 326 320 322 317 314 311 307 306 305 303 302 302 302 303 299 292 290 288 287 281 277 266 255 253 245 245 262 258 275 249 247 279 280 279 278 273 278 277 260 256 256 260 253 249 249 249 250 250 245 245 244 245 246 248 249 249 246 240 235 235 238 237 231 228 226 226 225 224
357 347 351 344 345 345 347 348 349 347 346 343 344 340 340 335 332 326 322 323 317 311 307 304 301 296 294 292 292 293 295 294 290 286 282 277 280 276 268 264 260 251 242 249 264 276 275 207 252 270 271 287 283 238 268 274 269 263 258 260 259 252 248 248 250 246 243 243 243 243 245 247 248 247 244 237 231 233 235 234 231 227 224 222 222
4 350 356 354 355 353 356 349 350 345 340 340 336 339 333 329 324 323 324 318 312 307 308 304 305 300 292 294 293 292 284 280 285 288 284 284 279 278 277 268 264 268 236 250 262 269 283 269 251 268 272 261 277 267 254 278 275 269 265 267 256 243 249 248 252 252 242 243 243 243 242 244 247 247 246 242 232 226 228 232 233 230 225 224 224
360 0 352 358 352 354 356 354 351 350 346 343 343 340 333 330 324 321 318 312 307 307 307 303 305 306 301 294 291 294 293 285 282 280 282 280 276 274 277 273 272 269 264 241 262 275 279 281 266 266 264 252 257 280 263 253 270 268 278 273 264 260 247 246 250 255 245 242 242 242 243 243 244 246 247 247 241 229 224 226 228 229 228 226 227
359 357 5 2 4 0 359 354 354 349 345 343 342 338 331 325 319 314 314 313 309 307 305 305 305 305 300 298 295 296 295 289 286 284 279 273 274 274 273 274 269 272 271 262 249 263 278 286 281 265 261 266 260 267 273 263 267 267 258 271 267 264 260 249 245 255 252 251 250 248 245 244 244 243 244 244 245 240 228 224 226 228 229 230 230
359 358 2 3 358 356 354 345 341 343 341 339 332 326 319 309 306 308 308 306 303 300 297 296 297 297 296 292 295 299 299 294 293 290 287 280 277 274 272 271 272 271 272 268 266 259 271 276 284 277 259 258 247 257 260 273 277 270 262 257 261 260 262 248 247 240 242 246 248 246 245 244 243 242 242 243 243 245 241 231 226 225 226 228 231
353 1 357 357 354 347 346 338 337 336 336 332 328 323 319 319 313 307 302 299 296 294 292 288 286 287 287 289 292 296 296 293 292 294 293 289 286 278 274 272 272 272 272 272 267 267 266 271 277 287 276 266 273 247 247 240 263 278 276 269 260 243 249 260 247 245 236 235 245 247 244 243 241 242 242 243 243 243 244 241 233 227 224 224 226
358 357 356 353 354 346 338 343 343 338 333 333 329 324 322 316 311 306 305 302 298 296 292 290 288 288 288 288 288 289 287 285 287 289 294 292 288 282 277 278 273 272 270 269 269 267 267 273 276 275 283 273 253 272 247 229 237 248 266 284 280 262 243 242 263 243 226 236 236 240 242 238 236 236 240 242 244 244 243 243 241 234 227 223 222
4 359 354 349 342 341 337 341 336 334 331 328 329 327 319 316 315 310 306 304 301 296 293 290 289 288 289 289 287 287 285 283 284 285 283 283 283 281 279 278 277 274 270 269 266 265 266 267 269 279 277 283 277 248 270 240 248 262 239 247 269 278 268 243 236 253 236 230 244 245 246 251 249 245 245 245 243 243 243 244 243 239 232 224 221
359 349 345 341 334 335 335 334 331 330 330 324 330 322 321 318 316 312 310 308 307 304 304 304 301 297 291 289 286 285 290 293 292 292 291 289 289 288 285 281 280 277 276 272 268 265 262 260 268 269 276 278 273 276 265 242 233 248 250 210 250 259 269 274 266 239 230 237 240 239 241 228 240 239 234 240 238 239 242 243 244 242 236 229 223
343 338 335 332 326 329 328 323 324 322 318 312 310 312 313 312 312 310 306 303 303 303 304 306 306 307 307 306 305 305 304 302 299 296 293 289 285 283 285 284 279 274 270 271 267 262 261 260 258 265 269 269 274 267 267 256 243 247 255 241 251 263 271 269 270 256 204 215 233 246 242 220 221 242 233 240 242 233 235 235 234 237 236 230 225
333 333 330 325 328 323 318 316 315 313 307 302 307 310 311 311 309 304 302 302 301 301 301 302 304 307 307 307 307 305 302 299 296 293 293 293 292 288 284 281 280 279 280 274 269 266 265 260 260 260 259 266 267 267 265 271 259 240 243 235 240 253 260 266 273 279 187 190 222 245 255 213 198 237 239 238 241 231 230 236 234 236 236 230 226
327 323 320 320 319 316 311 309 306 303 302 302 307 309 309 308 307 305 302 301 301 300 300 300 301 305 307 307 304 303 301 298 297 297 295 294 293 292 290 286 282 276 272 272 276 275 268 269 266 259 259 258 265 264 266 263 267 264 250 245 242 242 252 251 252 263 233 184 197 239 257 211 189 227 247 241 239 229 230 234 235 235 234 233 230
314 317 316 318 313 313 309 306 305 301 298 304 306 307 307 308 309 308 302 300 298 299 301 303 304 304 304 302 303 301 300 302 302 298 297 293 287 287 289 290 290 288 283 275 269 268 274 274 274 270 260 263 264 261 258 261 265 265 262 258 252 247 246 249 249 260 250 182 194 239 259 234 178 215 242 240 231 224 230 234 236 235 235 237 235
314 310 308 306 308 309 307 303 300 300 296 303 306 307 309 309 308 307 302 304 304 302 303 301 299 298 298 300 301 300 300 300 300 304 307 303 301 292 271 265 269 280 285 286 287 281 273 271 273 272 272 271 271 276 272 269 269 268 268 265 262 259 253 250 252 253 248 168 194 234 262 245 189 211 241 248 210 221 229 222 225 229 232 234 236
317 313 315 313 308 305 304 301 299 299 297 305 307 309 309 309 308 310 309 306 301 298 296 297 296 297 297 296 296 297 301 303 303 301 300 300 297 297 296 293 286 277 269 267 268 271 271 261 259 261 266 267 269 271 272 269 263 265 266 268 267 266 267 268 263 255 258 192 200 207 256 265 188 211 242 245 183 217 228 222 223 223 225 228 231
295 299 298 299 303 304 301 300 300 298 299 307 308 308 308 309 310 312 308 300 299 299 300 300 298 296 295 295 297 298 298 297 296 296 295 294 292 287 284 284 292 295 289 288 285 282 276 274 271 266 263 265 265 261 261 260 258 258 262 263 262 260 261 259 257 253 251 206 194 207 248 259 185 217 251 230 189 231 230 218 223 224 225 226 228
309 307 301 301 300 299 301 300 300 298 297 306 307 307 309 310 312 299 299 299 297 297 298 297 297 297 297 295 293 294 293 288 292 294 296 296 289 290 295 298 295 295 297 294 290 290 290 286 283 282 282 281 278 276 273 271 268 264 259 254 248 245 248 254 256 252 248 228 213 202 230 256 228 210 254 231 202 232 230 216 216 221 223 225 227
307 302 304 301 293 292 295 298 297 296 296 303 305 306 308 308 307 306 303 287 271 278 298 297 298 295 289 287 289 285 284 286 291 294 296 299 296 291 287 287 289 288 289 291 290 290 291 293 295 294 290 289 287 286 284 283 278 269 260 259 257 245 242 239 251 250 255 238 223 188 221 237 251 199 233 251 248 244 237 222 212 216 218 224 225
291 299 299 297 296 292 286 289 296 296 293 298 302 302 304 305 305 298 293 287 274 285 300 295 280 271 268 271 280 287 292 294 295 297 299 300 293 286 282 278 278 274 276 278 281 282 280 277 279 281 281 284 288 289 288 286 284 278 267 266 272 272 272 263 255 253 254 242 222 182 221 234 239 204 204 249 254 244 209 205 212 205 206 206 223